| time (UTC) | temp F | wind direction | speed knots | gust knots | rain 1hr in | rain 24hr in | rain mn in | humidity % | barometer mb |
| 20260510130808 | 73 | 350 | 0.0 | 0.9 | 0.00 | 0.00 | 0.00 | 64 | 1015.4 |
| 20260510130536 | 72 | 350 | 0.0 | 0.9 | 0.00 | 0.00 | 0.00 | 61 | 1015.3 |
| 20260510125806 | 73 | 350 | 0.0 | 0.9 | 0.00 | 0.00 | 0.00 | 61 | 1015.6 |
| 20260510125538 | 72 | 350 | 0.0 | 0.9 | 0.00 | 0.00 | 0.00 | 64 | 1015.6 |
| 20260510124805 | 72 | 350 | 0.0 | 0.9 | 0.00 | 0.00 | 0.00 | 63 | 1015.6 |
| 20260510124536 | 71 | 350 | 0.0 | 0.9 | 0.00 | 0.00 | 0.00 | 70 | 1015.4 |
| 20260510123802 | 70 | 350 | 0.0 | 0.9 | 0.00 | 0.00 | 0.00 | 67 | 1015.3 |
| 20260510123300 | 69 | 350 | 0.0 | 0.9 | 0.00 | 0.00 | 0.00 | 70 | 1015.0 |
| 20260510122758 | 68 | 350 | 0.0 | 0.9 | 0.00 | 0.00 | 0.00 | 78 | 1014.9 |
| 20260510122528 | 67 | 350 | 0.0 | 0.9 | 0.00 | 0.00 | 0.00 | 81 | 1015.0 |
| 20260510121756 | 65 | 350 | 0.0 | 0.9 | 0.00 | 0.00 | 0.00 | 84 | 1015.0 |
| 20260510121256 | 64 | 350 | 0.0 | 0.9 | 0.00 | 0.00 | 0.00 | 91 | 1014.9 |
| 20260510120754 | 63 | 350 | 0.0 | 0.0 | 0.00 | 0.00 | 0.00 | 93 | 1014.8 |
| 20260510120254 | 62 | 350 | 0.0 | 0.9 | 0.00 | 0.00 | 0.00 | 94 | 1014.7 |
| 20260510115754 | 60 | 350 | 0.0 | 0.9 | 0.00 | 0.00 | 0.00 | 94 | 1014.6 |
| 20260510115252 | 60 | 350 | 0.0 | 0.0 | 0.00 | 0.00 | 0.00 | 94 | 1014.5 |
| 20260510114750 | 59 | 350 | 0.0 | 0.0 | 0.00 | 0.00 | 0.00 | 94 | 1014.5 |
| 20260510114514 | 58 | 350 | 0.0 | 0.0 | 0.00 | 0.00 | 0.00 | 94 | 1014.3 |
| 20260510113740 | 56 | 350 | 0.0 | 0.0 | 0.00 | 0.00 | 0.00 | 94 | 1014.3 |
| 20260510113240 | 54 | 350 | 0.0 | 0.0 | 0.00 | 0.00 | 0.00 | 94 | 1014.2 |
| 20260510112739 | 53 | 349 | 0.0 | 0.0 | 0.00 | 0.00 | 0.00 | 93 | 1014.2 |
| 20260510112240 | 53 | 350 | 0.0 | 0.0 | 0.00 | 0.00 | 0.00 | 93 | 1014.2 |
| 20260510112009 | 53 | 349 | 0.0 | 0.0 | 0.00 | 0.00 | 0.00 | 93 | 1014.2 |
| 20260510111238 | 53 | 349 | 0.0 | 0.0 | 0.00 | 0.00 | 0.00 | 93 | 1014.0 |
| 20260510110737 | 52 | 349 | 0.0 | 0.0 | 0.00 | 0.00 | 0.00 | 93 | 1014.0 |
| 20260510110236 | 52 | 349 | 0.0 | 0.0 | 0.00 | 0.00 | 0.00 | 93 | 1013.9 |
| 20260510105734 | 52 | 349 | 0.0 | 0.0 | 0.00 | 0.00 | 0.00 | 93 | 1013.9 |
| 20260510105235 | 52 | 349 | 0.0 | 0.0 | 0.00 | 0.00 | 0.00 | 93 | 1013.8 |
| 20260510104234 | 52 | 349 | 0.0 | 0.9 | 0.00 | 0.00 | 0.00 | 93 | 1013.8 |
| 20260510103730 | 52 | 349 | 0.0 | 0.9 | 0.00 | 0.00 | 0.00 | 93 | 1013.7 |
| 20260510103002 | 52 | 349 | 0.0 | 0.0 | 0.00 | 0.00 | 0.00 | 93 | 1013.7 |
| 20260510102229 | 53 | 349 | 0.0 | 0.0 | 0.00 | 0.00 | 0.00 | 93 | 1013.5 |
| 20260510101731 | 53 | 349 | 0.0 | 0.0 | 0.00 | 0.00 | 0.00 | 93 | 1013.5 |
| 20260510101230 | 53 | 349 | 0.0 | 0.0 | 0.00 | 0.00 | 0.00 | 93 | 1013.4 |
| 20260510100729 | 53 | 349 | 0.0 | 0.0 | 0.00 | 0.00 | 0.00 | 93 | 1013.3 |
| 20260510100501 | 53 | 349 | 0.0 | 0.0 | 0.00 | 0.00 | 0.00 | 93 | 1013.2 |
| 20260510095730 | 53 | 349 | 0.0 | 0.0 | 0.00 | 0.00 | 0.00 | 92 | 1013.1 |
| 20260510094729 | 53 | 349 | 0.0 | 0.0 | 0.00 | 0.00 | 0.00 | 92 | 1012.9 |
| 20260510094230 | 54 | 349 | 0.0 | 0.0 | 0.00 | 0.00 | 0.00 | 93 | 1012.9 |
| 20260510093729 | 54 | 349 | 0.0 | 0.0 | 0.00 | 0.00 | 0.00 | 93 | 1012.9 |
| 20260510093230 | 54 | 349 | 0.0 | 0.0 | 0.00 | 0.00 | 0.00 | 92 | 1013.0 |
| 20260510093000 | 54 | 349 | 0.0 | 0.0 | 0.00 | 0.00 | 0.00 | 92 | 1012.9 |
| 20260510092230 | 54 | 349 | 0.0 | 0.0 | 0.00 | 0.00 | 0.00 | 93 | 1012.8 |
| 20260510091730 | 54 | 349 | 0.0 | 0.0 | 0.00 | 0.00 | 0.00 | 93 | 1012.8 |
| 20260510091228 | 54 | 349 | 0.0 | 0.0 | 0.00 | 0.00 | 0.00 | 92 | 1012.8 |
| 20260510090954 | 55 | 349 | 0.0 | 0.0 | 0.00 | 0.00 | 0.00 | 92 | 1012.9 |
| 20260510090222 | 55 | 349 | 0.0 | 0.0 | 0.00 | 0.00 | 0.00 | 92 | 1012.7 |
| 20260510085721 | 55 | 349 | 0.0 | 0.0 | 0.00 | 0.00 | 0.00 | 92 | 1012.7 |
| 20260510085445 | 55 | 349 | 0.0 | 0.0 | 0.00 | 0.00 | 0.00 | 92 | 1012.7 |
| 20260510084707 | 55 | 349 | 0.0 | 0.0 | 0.00 | 0.00 | 0.00 | 92 | 1012.7 |
| 20260510084201 | 55 | 349 | 0.0 | 0.0 | 0.00 | 0.00 | 0.00 | 92 | 1012.6 |
| 20260510083655 | 55 | 349 | 0.0 | 0.0 | 0.00 | 0.00 | 0.00 | 92 | 1012.4 |
| 20260510083149 | 55 | 349 | 0.0 | 0.0 | 0.00 | 0.00 | 0.00 | 92 | 1012.4 |
| 20260510082915 | 55 | 349 | 0.0 | 0.0 | 0.00 | 0.00 | 0.00 | 92 | 1012.4 |
| 20260510082137 | 55 | 349 | 0.0 | 0.0 | 0.00 | 0.00 | 0.00 | 92 | 1012.4 |
| 20260510081631 | 55 | 349 | 0.0 | 0.0 | 0.00 | 0.00 | 0.00 | 92 | 1012.2 |
| 20260510081125 | 55 | 349 | 0.0 | 0.0 | 0.00 | 0.00 | 0.00 | 92 | 1012.3 |
| 20260510080619 | 55 | 349 | 0.0 | 0.0 | 0.00 | 0.00 | 0.00 | 92 | 1012.2 |
| 20260510080113 | 55 | 349 | 0.0 | 0.0 | 0.00 | 0.00 | 0.00 | 92 | 1012.2 |
| 20260510075607 | 55 | 349 | 0.0 | 0.0 | 0.00 | 0.00 | 0.00 | 91 | 1012.2 |
| 20260510075101 | 55 | 349 | 0.0 | 0.0 | 0.00 | 0.00 | 0.00 | 91 | 1012.2 |
| 20260510074555 | 56 | 349 | 0.0 | 0.0 | 0.00 | 0.00 | 0.00 | 91 | 1012.2 |
| 20260510074049 | 56 | 349 | 0.0 | 0.9 | 0.00 | 0.00 | 0.00 | 91 | 1012.2 |
| 20260510073037 | 56 | 349 | 0.0 | 0.0 | 0.00 | 0.00 | 0.00 | 91 | 1012.2 |
| 20260510072802 | 56 | 349 | 0.0 | 0.0 | 0.00 | 0.00 | 0.00 | 90 | 1012.0 |
| 20260510072257 | 57 | 350 | 0.0 | 0.0 | 0.00 | 0.00 | 0.00 | 90 | 1012.0 |
| 20260510071751 | 57 | 349 | 0.0 | 0.0 | 0.00 | 0.00 | 0.00 | 90 | 1012.0 |
| 20260510071014 | 57 | 349 | 0.0 | 0.0 | 0.00 | 0.00 | 0.00 | 90 | 1012.0 |
| 20260510070507 | 57 | 349 | 0.0 | 0.0 | 0.00 | 0.00 | 0.00 | 90 | 1012.1 |
| 20260510070001 | 57 | 349 | 0.0 | 0.9 | 0.00 | 0.00 | 0.00 | 90 | 1012.1 |
| 20260510065726 | 58 | 349 | 0.0 | 0.9 | 0.00 | 0.00 | 0.00 | 90 | 1012.0 |
| 20260510064950 | 58 | 349 | 0.0 | 0.0 | 0.00 | 0.00 | 0.00 | 90 | 1012.0 |
| 20260510064442 | 58 | 349 | 0.0 | 0.0 | 0.00 | 0.00 | 0.00 | 89 | 1012.1 |
| 20260510063937 | 58 | 349 | 0.0 | 0.0 | 0.00 | 0.00 | 0.00 | 89 | 1012.3 |
| 20260510063431 | 58 | 349 | 0.0 | 0.0 | 0.00 | 0.00 | 0.00 | 89 | 1012.1 |
| 20260510062925 | 58 | 349 | 0.0 | 0.9 | 0.00 | 0.00 | 0.00 | 89 | 1012.1 |
| 20260510062420 | 58 | 349 | 0.0 | 0.9 | 0.00 | 0.00 | 0.00 | 89 | 1012.2 |
| 20260510061913 | 59 | 349 | 0.0 | 0.9 | 0.00 | 0.00 | 0.00 | 89 | 1012.2 |
| 20260510061407 | 59 | 349 | 0.0 | 0.9 | 0.00 | 0.00 | 0.00 | 89 | 1012.4 |
| 20260510060901 | 59 | 349 | 0.0 | 0.9 | 0.00 | 0.00 | 0.00 | 88 | 1012.2 |
| 20260510060627 | 59 | 349 | 0.0 | 0.9 | 0.00 | 0.00 | 0.00 | 88 | 1012.2 |
| 20260510055849 | 59 | 349 | 0.0 | 0.9 | 0.00 | 0.00 | 0.00 | 88 | 1012.2 |
| 20260510055343 | 59 | 349 | 0.0 | 0.9 | 0.00 | 0.00 | 0.00 | 88 | 1012.2 |
| 20260510054837 | 59 | 349 | 0.0 | 0.9 | 0.00 | 0.00 | 0.00 | 88 | 1012.1 |
| 20260510054331 | 59 | 349 | 0.0 | 0.0 | 0.00 | 0.00 | 0.00 | 87 | 1012.2 |
| 20260510053826 | 60 | 349 | 0.0 | 0.9 | 0.00 | 0.00 | 0.00 | 87 | 1012.3 |
| 20260510053319 | 60 | 349 | 0.0 | 0.9 | 0.00 | 0.00 | 0.00 | 86 | 1012.2 |
| 20260510052812 | 60 | 349 | 0.0 | 1.7 | 0.00 | 0.00 | 0.00 | 86 | 1012.3 |
| 20260510052314 | 60 | 349 | 0.0 | 1.7 | 0.00 | 0.00 | 0.00 | 86 | 1012.5 |
| 20260510051813 | 60 | 349 | 0.0 | 1.7 | 0.00 | 0.00 | 0.00 | 86 | 1012.4 |
| 20260510051313 | 60 | 349 | 0.0 | 0.9 | 0.00 | 0.00 | 0.00 | 86 | 1012.4 |
| 20260510050812 | 60 | 349 | 0.0 | 0.9 | 0.00 | 0.00 | 0.00 | 85 | 1012.4 |
| 20260510050310 | 60 | 349 | 0.0 | 0.9 | 0.00 | 0.00 | 0.00 | 85 | 1012.4 |
| 20260510045807 | 60 | 349 | 0.0 | 0.9 | 0.00 | 0.00 | 0.00 | 85 | 1012.4 |
| 20260510045306 | 61 | 349 | 0.0 | 1.7 | 0.00 | 0.00 | 0.00 | 85 | 1012.5 |
| 20260510044803 | 61 | 349 | 0.0 | 1.7 | 0.00 | 0.00 | 0.00 | 84 | 1012.4 |
| 20260510044533 | 61 | 349 | 0.0 | 1.7 | 0.00 | 0.00 | 0.00 | 84 | 1012.4 |
| 20260510043759 | 61 | 349 | 0.0 | 1.7 | 0.00 | 0.00 | 0.00 | 84 | 1012.3 |
| 20260510043257 | 61 | 349 | 0.0 | 1.7 | 0.00 | 0.00 | 0.00 | 83 | 1012.5 |
| 20260510042757 | 61 | 349 | 0.0 | 0.9 | 0.00 | 0.00 | 0.00 | 83 | 1012.4 |
| 20260510042257 | 62 | 349 | 0.0 | 0.9 | 0.00 | 0.00 | 0.00 | 82 | 1012.3 |
| 20260510041756 | 62 | 349 | 0.0 | 0.9 | 0.00 | 0.00 | 0.00 | 82 | 1012.3 |
| 20260510041524 | 62 | 349 | 0.0 | 0.9 | 0.00 | 0.00 | 0.00 | 82 | 1012.3 |
| 20260510040751 | 62 | 349 | 0.0 | 0.9 | 0.00 | 0.00 | 0.00 | 81 | 1012.2 |
| 20260510040249 | 62 | 349 | 0.0 | 2.6 | 0.00 | 0.00 | 0.00 | 81 | 1012.2 |
| 20260510035747 | 62 | 349 | 0.0 | 2.6 | 0.00 | 0.00 | 0.00 | 81 | 1012.1 |
| 20260510035248 | 63 | 349 | 0.0 | 0.9 | 0.00 | 0.00 | 0.00 | 80 | 1012.1 |
| 20260510034748 | 63 | 349 | 0.0 | 1.7 | 0.00 | 0.00 | 0.00 | 80 | 1012.1 |
| 20260510034248 | 63 | 349 | 0.0 | 1.7 | 0.00 | 0.00 | 0.00 | 79 | 1012.0 |
| 20260510034019 | 63 | 349 | 0.0 | 0.9 | 0.00 | 0.00 | 0.00 | 79 | 1012.1 |
| 20260510033246 | 64 | 349 | 0.0 | 1.7 | 0.00 | 0.00 | 0.00 | 79 | 1012.0 |
| 20260510032746 | 64 | 350 | 0.0 | 3.5 | 0.00 | 0.00 | 0.00 | 79 | 1011.9 |
| 20260510032246 | 64 | 349 | 0.0 | 3.5 | 0.00 | 0.00 | 0.00 | 79 | 1011.8 |
| 20260510031746 | 64 | 349 | 0.0 | 0.9 | 0.00 | 0.00 | 0.00 | 78 | 1011.9 |
| 20260510031517 | 64 | 349 | 0.0 | 2.6 | 0.00 | 0.00 | 0.00 | 78 | 1011.8 |
| 20260510030741 | 64 | 349 | 0.0 | 2.6 | 0.00 | 0.00 | 0.00 | 78 | 1011.9 |
| 20260510030242 | 64 | 349 | 0.0 | 1.7 | 0.00 | 0.00 | 0.00 | 78 | 1011.9 |
| 20260510025740 | 64 | 349 | 0.0 | 0.9 | 0.00 | 0.00 | 0.00 | 78 | 1011.8 |
| 20260510025239 | 64 | 349 | 0.0 | 2.6 | 0.00 | 0.00 | 0.00 | 77 | 1011.8 |
| 20260510024737 | 64 | 349 | 0.0 | 2.6 | 0.00 | 0.00 | 0.00 | 78 | 1011.6 |
| 20260510024508 | 64 | 349 | 0.0 | 3.5 | 0.00 | 0.00 | 0.00 | 78 | 1011.7 |
| 20260510023733 | 64 | 349 | 0.0 | 3.5 | 0.00 | 0.00 | 0.00 | 78 | 1011.5 |
| 20260510023503 | 64 | 349 | 0.0 | 0.9 | 0.00 | 0.00 | 0.00 | 77 | 1011.5 |
| 20260510022730 | 64 | 349 | 0.0 | 0.9 | 0.00 | 0.00 | 0.00 | 77 | 1011.5 |
| 20260510022228 | 64 | 349 | 0.0 | 0.9 | 0.00 | 0.00 | 0.00 | 77 | 1011.5 |
| 20260510021725 | 64 | 349 | 0.0 | 1.7 | 0.00 | 0.00 | 0.00 | 76 | 1011.4 |
| 20260510021226 | 64 | 349 | 0.0 | 1.7 | 0.00 | 0.00 | 0.00 | 76 | 1011.4 |
| 20260510020726 | 64 | 349 | 0.0 | 0.9 | 0.00 | 0.00 | 0.00 | 76 | 1011.3 |
| 20260510020223 | 64 | 349 | 0.0 | 0.9 | 0.00 | 0.00 | 0.00 | 76 | 1011.3 |
| 20260510015722 | 64 | 349 | 0.0 | 2.6 | 0.00 | 0.00 | 0.00 | 75 | 1011.1 |
| 20260510015220 | 64 | 349 | 0.0 | 2.6 | 0.00 | 0.00 | 0.00 | 75 | 1011.1 |
| 20260510014718 | 64 | 349 | 0.0 | 0.9 | 0.00 | 0.00 | 0.00 | 75 | 1011.1 |
| 20260510014215 | 64 | 349 | 0.0 | 0.9 | 0.00 | 0.00 | 0.00 | 75 | 1011.0 |
| 20260510013714 | 64 | 349 | 0.0 | 0.9 | 0.00 | 0.00 | 0.00 | 75 | 1010.9 |
| 20260510013212 | 64 | 349 | 0.0 | 0.9 | 0.00 | 0.00 | 0.00 | 75 | 1010.7 |
| 20260510012710 | 64 | 349 | 0.0 | 0.9 | 0.00 | 0.00 | 0.00 | 75 | 1010.6 |
| 20260510012208 | 64 | 349 | 0.0 | 0.9 | 0.00 | 0.00 | 0.00 | 75 | 1010.5 |
| 20260510011705 | 64 | 349 | 0.0 | 0.9 | 0.00 | 0.00 | 0.00 | 74 | 1010.4 |
| 20260510011204 | 64 | 349 | 0.0 | 0.9 | 0.00 | 0.00 | 0.00 | 74 | 1010.5 |
| 20260510010703 | 64 | 349 | 0.0 | 0.9 | 0.00 | 0.00 | 0.00 | 74 | 1010.5 |
| 20260510010157 | 64 | 349 | 0.0 | 0.9 | 0.00 | 0.00 | 0.00 | 74 | 1010.4 |
| 20260510005650 | 64 | 349 | 0.0 | 0.9 | 0.00 | 0.00 | 0.00 | 74 | 1010.3 |
| 20260510005145 | 64 | 349 | 0.0 | 0.9 | 0.00 | 0.00 | 0.00 | 74 | 1010.2 |
| 20260510004639 | 64 | 349 | 0.0 | 0.0 | 0.00 | 0.00 | 0.00 | 73 | 1010.1 |
| 20260510004133 | 65 | 349 | 0.0 | 0.0 | 0.00 | 0.00 | 0.00 | 73 | 1010.1 |
| 20260510003859 | 65 | 349 | 0.0 | 0.9 | 0.00 | 0.00 | 0.00 | 72 | 1010.1 |
| 20260510003122 | 65 | 349 | 0.0 | 0.9 | 0.00 | 0.00 | 0.00 | 72 | 1010.0 |
| 20260510002847 | 65 | 349 | 0.0 | 0.9 | 0.00 | 0.00 | 0.00 | 71 | 1010.1 |
| 20260510002109 | 66 | 349 | 0.0 | 0.0 | 0.00 | 0.00 | 0.00 | 71 | 1010.0 |
| 20260510001603 | 66 | 349 | 0.0 | 0.0 | 0.00 | 0.00 | 0.00 | 70 | 1010.0 |
| 20260510001057 | 67 | 349 | 0.0 | 0.0 | 0.00 | 0.00 | 0.00 | 69 | 1010.0 |
| 20260510000552 | 67 | 349 | 0.0 | 0.0 | 0.00 | 0.00 | 0.00 | 68 | 1009.9 |
| 20260510000045 | 68 | 349 | 0.0 | 0.0 | 0.00 | 0.00 | 0.00 | 68 | 1009.9 |
| 20260509235539 | 69 | 349 | 0.0 | 0.0 | 0.00 | 0.00 | 0.00 | 67 | 1009.8 |
| 20260509235307 | 69 | 349 | 0.0 | 0.0 | 0.00 | 0.00 | 0.00 | 66 | 1009.8 |
| 20260509234527 | 70 | 349 | 0.0 | 0.0 | 0.00 | 0.00 | 0.00 | 66 | 1009.7 |
| 20260509234021 | 70 | 349 | 0.0 | 0.0 | 0.00 | 0.00 | 0.00 | 65 | 1009.7 |
| 20260509233516 | 71 | 349 | 0.0 | 0.9 | 0.00 | 0.00 | 0.00 | 64 | 1009.6 |
| 20260509233009 | 71 | 349 | 0.0 | 0.9 | 0.00 | 0.00 | 0.00 | 64 | 1009.5 |
| 20260509232503 | 72 | 349 | 0.0 | 1.7 | 0.00 | 0.00 | 0.00 | 63 | 1009.6 |
| 20260509231451 | 73 | 349 | 0.0 | 0.9 | 0.00 | 0.00 | 0.00 | 62 | 1009.6 |
| 20260509230439 | 73 | 349 | 0.0 | 0.9 | 0.00 | 0.00 | 0.00 | 60 | 1009.6 |
| 20260509225933 | 74 | 349 | 0.0 | 1.7 | 0.00 | 0.00 | 0.00 | 60 | 1009.6 |
| 20260509225426 | 74 | 349 | 0.0 | 1.7 | 0.00 | 0.00 | 0.00 | 59 | 1009.5 |
| 20260509225151 | 74 | 349 | 0.0 | 0.9 | 0.00 | 0.00 | 0.00 | 59 | 1009.5 |
| 20260509224415 | 74 | 349 | 0.0 | 2.6 | 0.00 | 0.00 | 0.00 | 58 | 1009.6 |
| 20260509223909 | 75 | 349 | 0.0 | 2.6 | 0.00 | 0.00 | 0.00 | 57 | 1009.6 |
| 20260509223403 | 75 | 349 | 0.0 | 2.6 | 0.00 | 0.00 | 0.00 | 57 | 1009.7 |
| 20260509222857 | 75 | 349 | 0.0 | 2.6 | 0.00 | 0.00 | 0.00 | 56 | 1009.5 |
| 20260509222621 | 76 | 349 | 0.0 | 1.7 | 0.00 | 0.00 | 0.00 | 56 | 1009.5 |
| 20260509221845 | 76 | 349 | 0.0 | 0.9 | 0.00 | 0.00 | 0.00 | 56 | 1009.4 |
| 20260509221610 | 77 | 349 | 0.0 | 0.9 | 0.00 | 0.00 | 0.00 | 55 | 1009.4 |
| 20260509220835 | 78 | 349 | 0.0 | 0.9 | 0.00 | 0.00 | 0.00 | 55 | 1009.4 |
| 20260509220336 | 78 | 349 | 0.0 | 1.7 | 0.00 | 0.00 | 0.00 | 55 | 1009.2 |
| 20260509215835 | 78 | 349 | 0.0 | 1.7 | 0.00 | 0.00 | 0.00 | 53 | 1009.1 |
| 20260509215333 | 78 | 349 | 0.0 | 1.7 | 0.00 | 0.00 | 0.00 | 52 | 1009.2 |
| 20260509214833 | 78 | 349 | 0.0 | 2.6 | 0.00 | 0.00 | 0.00 | 52 | 1009.2 |
| 20260509214333 | 79 | 349 | 0.9 | 4.3 | 0.00 | 0.00 | 0.00 | 53 | 1009.2 |
| 20260509213831 | 80 | 349 | 0.0 | 4.3 | 0.00 | 0.00 | 0.00 | 52 | 1009.2 |
| 20260509213331 | 80 | 349 | 0.0 | 3.5 | 0.00 | 0.00 | 0.00 | 54 | 1009.1 |
| 20260509212831 | 78 | 349 | 0.9 | 3.5 | 0.00 | 0.00 | 0.00 | 53 | 1008.9 |
| 20260509212329 | 77 | 349 | 0.9 | 3.5 | 0.00 | 0.00 | 0.00 | 55 | 1009.1 |
| 20260509211830 | 76 | 349 | 0.9 | 4.3 | 0.00 | 0.00 | 0.00 | 54 | 1009.0 |
| 20260509211329 | 77 | 349 | 0.9 | 4.3 | 0.00 | 0.00 | 0.00 | 52 | 1009.0 |
| 20260509210827 | 78 | 349 | 0.0 | 3.5 | 0.00 | 0.00 | 0.00 | 51 | 1009.0 |
| 20260509210325 | 79 | 349 | 0.9 | 7.8 | 0.00 | 0.00 | 0.00 | 51 | 1009.1 |
| 20260509205823 | 80 | 349 | 0.9 | 7.8 | 0.00 | 0.00 | 0.00 | 49 | 1009.1 |
| 20260509205321 | 81 | 349 | 0.9 | 4.3 | 0.00 | 0.00 | 0.00 | 50 | 1009.1 |
| 20260509204821 | 81 | 349 | 0.9 | 4.3 | 0.00 | 0.00 | 0.00 | 47 | 1009.2 |
| 20260509204321 | 82 | 349 | 1.7 | 3.5 | 0.00 | 0.00 | 0.00 | 47 | 1009.0 |
| 20260509203820 | 81 | 349 | 1.7 | 7.8 | 0.00 | 0.00 | 0.00 | 50 | 1009.1 |
| 20260509203549 | 82 | 349 | 0.9 | 7.8 | 0.00 | 0.00 | 0.00 | 46 | 1009.0 |
| 20260509203043 | 82 | 349 | 0.9 | 4.3 | 0.00 | 0.00 | 0.00 | 51 | 1009.0 |
| 20260509202033 | 81 | 349 | 0.9 | 4.3 | 0.00 | 0.00 | 0.00 | 48 | 1008.8 |
| 20260509201303 | 81 | 349 | 1.7 | 4.3 | 0.00 | 0.00 | 0.00 | 49 | 1009.0 |
| 20260509200803 | 81 | 349 | 1.7 | 7.0 | 0.00 | 0.00 | 0.00 | 49 | 1008.8 |
| 20260509200303 | 81 | 349 | 1.7 | 7.0 | 0.00 | 0.00 | 0.00 | 49 | 1009.0 |
| 20260509200034 | 81 | 349 | 1.7 | 6.1 | 0.00 | 0.00 | 0.00 | 50 | 1009.1 |
| 20260509195306 | 81 | 349 | 0.9 | 4.3 | 0.00 | 0.00 | 0.00 | 52 | 1009.2 |
| 20260509194801 | 80 | 349 | 0.9 | 4.3 | 0.00 | 0.00 | 0.00 | 51 | 1009.2 |
| 20260509193800 | 81 | 349 | 1.7 | 5.2 | 0.00 | 0.00 | 0.00 | 50 | 1009.5 |
| 20260509193532 | 81 | 349 | 0.9 | 5.2 | 0.00 | 0.00 | 0.00 | 50 | 1009.6 |
| 20260509192757 | 81 | 349 | 0.9 | 7.0 | 0.00 | 0.00 | 0.00 | 51 | 1009.6 |
| 20260509192257 | 81 | 349 | 1.7 | 7.0 | 0.00 | 0.00 | 0.00 | 52 | 1009.7 |
| 20260509191757 | 81 | 349 | 0.9 | 3.5 | 0.00 | 0.00 | 0.00 | 51 | 1009.7 |
| 20260509191257 | 81 | 349 | 0.9 | 4.3 | 0.00 | 0.00 | 0.00 | 50 | 1009.7 |
| 20260509190757 | 81 | 349 | 0.9 | 4.3 | 0.00 | 0.00 | 0.00 | 52 | 1009.8 |
| 20260509190257 | 80 | 349 | 0.9 | 7.0 | 0.00 | 0.00 | 0.00 | 52 | 1009.9 |
| 20260509185756 | 79 | 349 | 1.7 | 7.0 | 0.00 | 0.00 | 0.00 | 51 | 1009.8 |
| 20260509185257 | 79 | 349 | 1.7 | 7.0 | 0.00 | 0.00 | 0.00 | 54 | 1009.9 |
| 20260509184757 | 78 | 349 | 0.9 | 4.3 | 0.00 | 0.00 | 0.00 | 54 | 1009.9 |
| 20260509184256 | 78 | 350 | 0.9 | 8.7 | 0.00 | 0.00 | 0.00 | 56 | 1009.9 |
| 20260509183755 | 76 | 349 | 0.9 | 8.7 | 0.00 | 0.00 | 0.00 | 55 | 1010.1 |
| 20260509183255 | 76 | 349 | 0.9 | 3.5 | 0.00 | 0.00 | 0.00 | 56 | 1010.2 |
| 20260509183026 | 77 | 349 | 0.9 | 7.0 | 0.00 | 0.00 | 0.00 | 56 | 1010.4 |
| 20260509182253 | 77 | 349 | 0.9 | 7.0 | 0.00 | 0.00 | 0.00 | 54 | 1010.4 |
| 20260509181253 | 77 | 349 | 0.9 | 7.0 | 0.00 | 0.00 | 0.00 | 54 | 1010.4 |
| 20260509180750 | 77 | 350 | 0.9 | 7.0 | 0.00 | 0.00 | 0.00 | 53 | 1010.3 |
| 20260509180249 | 78 | 349 | 0.9 | 5.2 | 0.00 | 0.00 | 0.00 | 52 | 1010.5 |
| 20260509175749 | 79 | 349 | 0.9 | 5.2 | 0.00 | 0.00 | 0.00 | 53 | 1010.7 |
| 20260509175250 | 79 | 349 | 1.7 | 6.1 | 0.00 | 0.00 | 0.00 | 53 | 1010.6 |
| 20260509174748 | 79 | 349 | 1.7 | 7.0 | 0.00 | 0.00 | 0.00 | 53 | 1010.6 |
| 20260509174518 | 79 | 349 | 0.9 | 7.0 | 0.00 | 0.00 | 0.00 | 54 | 1010.7 |
| 20260509173746 | 78 | 349 | 1.7 | 6.1 | 0.00 | 0.00 | 0.00 | 53 | 1010.7 |
| 20260509173240 | 78 | 349 | 0.9 | 5.2 | 0.00 | 0.00 | 0.00 | 54 | 1010.9 |
| 20260509172734 | 77 | 349 | 0.9 | 5.2 | 0.00 | 0.00 | 0.00 | 54 | 1010.9 |
| 20260509172228 | 76 | 350 | 0.9 | 5.2 | 0.00 | 0.00 | 0.00 | 56 | 1010.9 |
| 20260509171722 | 76 | 349 | 0.9 | 5.2 | 0.00 | 0.00 | 0.00 | 56 | 1010.9 |
| 20260509171216 | 76 | 349 | 1.7 | 4.3 | 0.00 | 0.00 | 0.00 | 55 | 1010.9 |
| 20260509170712 | 75 | 349 | 1.7 | 5.2 | 0.00 | 0.00 | 0.00 | 57 | 1011.1 |
| 20260509170204 | 75 | 349 | 2.6 | 8.7 | 0.00 | 0.00 | 0.00 | 55 | 1011.0 |
| 20260509165928 | 76 | 349 | 1.7 | 8.7 | 0.00 | 0.00 | 0.00 | 54 | 1011.0 |
| 20260509165152 | 76 | 349 | 1.7 | 7.0 | 0.00 | 0.00 | 0.00 | 59 | 1011.0 |
| 20260509164917 | 75 | 349 | 1.7 | 7.0 | 0.00 | 0.00 | 0.00 | 57 | 1011.0 |
| 20260509164139 | 75 | 349 | 1.7 | 7.0 | 0.00 | 0.00 | 0.00 | 57 | 1011.1 |
| 20260509163632 | 75 | 349 | 1.7 | 7.0 | 0.00 | 0.00 | 0.00 | 56 | 1011.1 |
| 20260509163126 | 75 | 349 | 2.6 | 6.1 | 0.00 | 0.00 | 0.00 | 56 | 1011.3 |
| 20260509162620 | 75 | 349 | 2.6 | 9.6 | 0.00 | 0.00 | 0.00 | 58 | 1011.3 |
| 20260509162114 | 75 | 349 | 1.7 | 8.7 | 0.00 | 0.00 | 0.00 | 58 | 1011.5 |
| 20260509161608 | 75 | 349 | 1.7 | 7.0 | 0.00 | 0.00 | 0.00 | 59 | 1011.7 |
| 20260509161102 | 76 | 350 | 0.9 | 7.0 | 0.00 | 0.00 | 0.00 | 58 | 1011.9 |
| 20260509160556 | 75 | 349 | 0.9 | 4.3 | 0.00 | 0.00 | 0.00 | 61 | 1011.6 |
| 20260509160049 | 74 | 349 | 1.7 | 6.1 | 0.00 | 0.00 | 0.00 | 61 | 1011.5 |
| 20260509155544 | 74 | 349 | 1.7 | 6.1 | 0.00 | 0.00 | 0.00 | 59 | 1011.7 |
| 20260509155038 | 74 | 349 | 0.9 | 6.1 | 0.00 | 0.00 | 0.00 | 62 | 1011.7 |
| 20260509154532 | 73 | 349 | 1.7 | 6.1 | 0.00 | 0.00 | 0.00 | 65 | 1011.7 |
| 20260509154257 | 72 | 349 | 0.9 | 5.2 | 0.00 | 0.00 | 0.00 | 67 | 1011.7 |
| 20260509153520 | 71 | 349 | 0.9 | 5.2 | 0.00 | 0.00 | 0.00 | 66 | 1011.9 |
| 20260509153014 | 69 | 349 | 0.9 | 3.5 | 0.00 | 0.00 | 0.00 | 68 | 1011.9 |
| 20260509152508 | 69 | 349 | 0.9 | 4.3 | 0.00 | 0.00 | 0.00 | 67 | 1012.0 |
| 20260509152002 | 69 | 350 | 0.9 | 6.1 | 0.00 | 0.00 | 0.00 | 68 | 1012.2 |
| 20260509151456 | 69 | 349 | 0.9 | 6.1 | 0.00 | 0.00 | 0.00 | 68 | 1012.4 |
| 20260509150950 | 69 | 349 | 0.9 | 5.2 | 0.00 | 0.00 | 0.00 | 68 | 1012.6 |
| 20260509150444 | 69 | 349 | 0.9 | 4.3 | 0.00 | 0.00 | 0.00 | 66 | 1012.7 |
| 20260509145945 | 69 | 349 | 0.9 | 5.2 | 0.00 | 0.00 | 0.00 | 66 | 1012.6 |
| 20260509144945 | 70 | 349 | 1.7 | 9.6 | 0.00 | 0.00 | 0.00 | 67 | 1012.5 |
| 20260509144444 | 70 | 350 | 1.7 | 6.1 | 0.00 | 0.00 | 0.00 | 67 | 1012.3 |
| 20260509143944 | 69 | 349 | 1.7 | 6.1 | 0.00 | 0.00 | 0.00 | 66 | 1012.4 |
| 20260509143444 | 69 | 350 | 1.7 | 5.2 | 0.00 | 0.00 | 0.00 | 68 | 1012.3 |
| 20260509142944 | 68 | 350 | 1.7 | 5.2 | 0.00 | 0.00 | 0.00 | 70 | 1012.4 |
| 20260509142442 | 67 | 350 | 1.7 | 6.1 | 0.00 | 0.00 | 0.00 | 68 | 1012.6 |
| 20260509141942 | 66 | 350 | 0.9 | 6.1 | 0.00 | 0.00 | 0.00 | 71 | 1012.9 |
| 20260509141443 | 65 | 350 | 0.9 | 4.3 | 0.00 | 0.00 | 0.00 | 71 | 1013.0 |
| 20260509140942 | 65 | 350 | 0.9 | 5.2 | 0.00 | 0.00 | 0.00 | 70 | 1013.1 |
| 20260509140442 | 66 | 349 | 0.9 | 5.2 | 0.00 | 0.00 | 0.00 | 68 | 1013.0 |
| 20260509135442 | 66 | 350 | 1.7 | 7.8 | 0.00 | 0.00 | 0.00 | 68 | 1013.0 |
| 20260509134943 | 66 | 349 | 0.9 | 5.2 | 0.00 | 0.00 | 0.00 | 69 | 1013.0 |
| 20260509134442 | 66 | 349 | 0.9 | 5.2 | 0.00 | 0.00 | 0.00 | 69 | 1013.1 |
| 20260509133942 | 66 | 350 | 0.9 | 5.2 | 0.00 | 0.00 | 0.00 | 68 | 1013.1 |
| 20260509133436 | 65 | 350 | 0.9 | 5.2 | 0.00 | 0.00 | 0.00 | 71 | 1013.1 |
| 20260509132931 | 65 | 350 | 0.9 | 5.2 | 0.00 | 0.00 | 0.00 | 70 | 1013.0 |
| 20260509132423 | 65 | 350 | 0.9 | 6.1 | 0.00 | 0.00 | 0.00 | 72 | 1013.0 |
| 20260509131918 | 64 | 350 | 0.9 | 6.1 | 0.00 | 0.00 | 0.00 | 71 | 1013.1 |
| 20260509131412 | 63 | 350 | 0.9 | 3.5 | 0.00 | 0.00 | 0.00 | 73 | 1013.2 |
| 20260509130907 | 62 | 350 | 0.9 | 4.3 | 0.00 | 0.00 | 0.00 | 76 | 1013.3 |